SCP
0 1 1 1 1 0 0 0 0 0 0 0 0 0 0 0 0 0 0 0 0 0 0 0 0 0 0 0 0 0 0 0 0 0 0 0 0 0 0 0 0 0 0 0 0 0 0 0 0
0 1 1 1 0 0 0 0 0 0 0 0 0 0 0 0 0 0 0 0 0 0 0 0 0 0 0 0 0 0 0 0 0 0 0 0 0 0 0 0 0 0 0 0 0 0 0 0 0
1 1 1 1 0 0 0 0 0 0 0 0 0 0 0 0 0 0 0 0 0 0 0 0 0 0 0 0 0 0 0 0 0 0 0 0 0 0 0 0 0 0 0 0 0 0 0 0 0
1 1 1 0 0 0 0 0 0 0 0 0 0 0 0 0 0 0 0 0 0 0 0 0 0 0 0 0 0 0 0 0 0 0 0 0 0 0 0 0 0 0 0 0 0 0 0 0 0
1 1 0 0 0 0 0 0 0 0 0 0 0 0 0 0 0 0 0 0 0 0 0 0 0 0 0 0 0 0 0 0 0 0 0 0 0 0 0 0 0 0 0 0 0 0 0 0 0
1 0 0 0 0 0 0 0 0 0 0 0 0 0 0 0 0 0 0 0 0 0 0 0 0 0 0 0 0 0 0 0 0 0 0 0 0 0 0 0 0 0 0 0 0 0 0 0 0
0 0 0 0 0 0 0 0 0 0 0 0 0 0 0 0 0 0 0 0 0 0 0 0 0 0 0 0 0 0 0 0 0 0 0 0 0 0 0 0 0 0 0 0 0 0 0 0 0
0 0 0 0 0 0 0 0 0 0 0 0 0 0 0 0 0 0 0 0 0 0 0 0 0 0 0 0 0 0 0 0 0 0 0 0 0 0 0 0 0 0 0 0 0 0 0 0 0
0 0 0 0 0 0 0 0 0 0 0 0 0 0 0 0 0 0 0 0 0 0 0 0 0 0 0 0 0 0 0 0 0 0 0 0 0 0 0 0 0 0 0 0 0 0 0 0 0
0 0 0 0 0 0 0 0 0 0 0 0 0 0 0 0 0 0 0 0 0 0 0 0 0 0 0 0 0 0 0 0 0 0 0 0 0 0 0 0 0 0 0 0 0 0 0 0 0
0 0 0 0 0 0 0 0 0 0 0 0 0 0 0 0 0 0 0 0 0 0 0 0 0 0 0 0 0 0 0 0 0 0 0 0 0 0 0 0 0 0 0 0 0 0 0 0 0
0 0 0 0 0 0 0 0 0 0 0 0 0 0 0 0 0 0 0 0 0 0 0 0 0 0 0 0 0 0 0 0 0 0 0 0 0 0 0 0 0 0 0 0 0 0 0 0 0
0 0 0 0 0 0 0 0 0 0 0 0 0 0 0 0 0 0 0 0 0 0 0 0 0 0 0 0 0 0 0 0 0 0 0 0 0 0 0 0 0 0 0 0 0 0 0 0 0
0 0 0 0 0 0 0 0 0 0 0 0 0 0 0 0 0 0 0 0 0 0 0 0 0 0 0 0 0 0 0 0 0 0 0 0 0 0 0 0 0 0 0 0 0 0 0 0 0
0 0 0 0 0 0 0 0 0 0 0 0 0 0 0 0 0 0 0 0 0 0 0 0 0 0 0 0 0 0 0 0 0 0 0 0 0 0 0 0 0 0 0 0 0 0 0 0 0
0 0 0 0 0 0 0 0 0 0 0 0 0 0 0 0 0 0 0 0 0 0 0 0 0 0 0 0 0 0 0 0 0 0 0 0 0 0 0 0 0 0 0 0 0 0 0 0 0
0 0 0 0 0 0 0 0 0 0 0 0 0 0 0 0 0 0 0 0 1 1 1 0 0 0 0 0 0 0 0 0 0 0 0 0 0 0 0 0 0 0 0 0 0 0 0 0 0
0 0 0 0 0 0 0 0 0 0 0 0 0 0 0 0 0 0 0 1 1 1 1 1 0 0 0 0 0 0 0 0 0 0 0 0 0 0 0 0 0 0 0 0 0 0 0 0 0
0 0 0 0 0 0 0 0 0 0 0 0 0 0 1 1 1 1 1 1 1 1 1 1 1 1 1 0 0 0 0 0 0 0 0 0 0 0 0 0 0 0 0 0 0 0 0 0 0
0 0 0 0 0 0 0 0 0 0 0 0 0 0 1 1 1 1 1 1 1 1 1 1 1 1 1 1 0 0 0 0 0 0 0 0 0 0 0 0 0 0 0 0 0 0 0 0 0
0 0 0 0 0 0 0 0 0 0 0 0 0 0 1 1 1 1 1 1 1 1 1 1 1 1 1 1 1 0 0 0 0 0 1 0 0 0 0 0 0 0 0 0 0 0 0 0 0
0 0 0 0 0 0 0 0 0 0 0 0 0 0 0 1 1 1 1 1 1 1 1 1 1 1 1 1 1 1 1 0 0 1 1 1 0 0 0 0 0 0 0 0 0 0 0 0 0
0 0 0 0 0 0 0 0 0 0 0 0 0 0 0 1 1 1 1 1 1 1 1 1 2 1 1 1 1 1 1 1 1 1 1 1 1 0 0 0 0 0 0 0 0 0 0 0 0
0 0 0 0 0 0 0 0 0 0 0 0 0 0 0 1 1 1 1 1 1 1 1 1 2 2 1 1 1 1 1 1 1 1 1 1 1 1 0 0 0 0 0 0 0 0 0 0 0
0 0 0 0 0 0 0 0 0 0 0 0 0 0 0 0 1 1 1 1 1 1 1 1 2 2 2 1 1 1 1 1 1 1 1 1 1 1 0 0 0 0 0 0 0 0 0 0 0
0 0 0 0 0 0 0 0 0 0 0 0 0 0 0 1 1 1 1 1 1 1 1 2 2 2 2 1 1 1 1 1 1 1 1 1 0 0 0 1 1 0 0 0 0 0 0 0 0
0 0 0 0 0 0 0 0 0 0 0 0 0 0 0 1 1 1 1 1 1 1 1 2 2 2 2 1 1 1 1 1 1 1 1 1 0 0 1 1 1 0 0 0 0 0 0 0 0
0 0 0 0 0 0 0 0 0 0 0 0 0 0 1 1 1 1 1 1 1 1 1 2 2 2 2 2 1 1 1 1 1 1 1 1 1 1 1 1 1 1 0 0 0 0 0 0 0
0 0 0 0 0 0 0 0 0 0 0 0 0 0 1 1 1 1 1 1 1 1 2 2 2 2 2 2 2 1 1 1 1 1 1 1 1 1 1 1 1 1 1 0 0 0 0 0 0
0 0 0 0 0 0 0 0 0 0 0 0 0 1 1 1 1 1 1 1 1 1 2 2 2 2 2 2 2 2 1 1 1 1 1 1 1 1 1 1 1 1 1 0 0 0 0 0 0
Wind_Speed
9 11 10 7 3 3 14 15 14 14 15 14 14 15 17 15 12 11 9 11 12 13 12 12 11 12 12 13 13 14 15 15 15 14 14 15 14 15 16 16 16 16 16 17 17 17 16 16 15
10 12 10 5 1 8 13 13 14 13 12 13 16 18 18 17 15 12 10 10 13 14 12 11 12 12 13 13 14 14 14 15 15 14 14 14 14 15 16 16 16 16 16 16 16 16 16 15 14
12 15 8 0 8 12 13 12 12 11 10 14 16 17 14 13 14 11 10 11 13 14 13 12 12 12 12 12 13 13 14 14 14 14 14 14 15 15 15 15 16 15 15 15 15 15 15 14 12
9 8 3 6 15 15 13 11 11 11 11 12 14 13 15 14 13 12 11 12 13 14 14 13 12 12 12 12 12 13 13 13 14 14 14 14 14 14 14 15 15 15 15 15 15 14 14 12 10
10 4 4 11 15 14 12 11 11 11 11 15 17 17 15 14 13 12 10 11 12 14 14 13 12 12 12 12 12 12 13 13 13 14 14 14 13 13 13 14 14 14 14 14 14 13 12 10 8
6 1 4 11 14 13 11 11 12 13 13 15 16 16 14 12 11 11 10 9 11 14 15 13 12 12 12 12 12 12 12 12 12 12 13 13 13 13 13 13 13 13 13 13 12 12 10 9 6
4 1 7 13 13 12 12 12 11 11 11 12 15 16 13 12 11 10 9 9 11 12 13 12 12 11 12 11 11 11 10 10 10 11 11 12 12 12 11 12 12 12 12 12 11 10 9 7 4
3 1 9 12 13 13 12 12 11 12 11 11 11 12 13 12 11 10 9 9 10 10 10 10 11 11 10 10 11 10 10 9 9 9 9 10 10 10 11 10 10 10 10 10 9 8 7 5 3
2 4 9 12 13 12 12 12 13 12 11 12 14 16 15 13 12 10 10 9 7 8 7 7 8 8 9 10 11 10 9 8 7 7 8 7 5 6 7 10 9 9 8 8 7 7 6 5 3
4 7 13 13 13 12 12 11 12 11 12 15 16 16 14 12 11 9 10 9 7 6 7 7 6 5 5 6 7 6 6 6 4 3 5 4 3 3 7 10 9 8 7 7 7 6 6 5 4
9 11 12 13 12 12 12 11 11 12 12 14 15 15 13 12 10 9 9 9 8 6 6 8 7 5 4 4 4 3 3 4 4 4 3 2 2 3 4 4 5 5 6 5 6 6 5 4 3
10 11 11 12 10 11 11 11 12 12 13 15 14 14 12 11 10 9 9 9 7 6 6 7 8 6 4 4 2 2 3 3 3 3 2 2 1 1 2 1 3 3 2 2 3 3 4 3 3
8 10 11 10 10 11 11 12 13 14 15 15 15 13 12 10 10 9 9 9 8 6 6 7 7 5 3 3 2 2 2 2 4 3 2 2 2 1 1 1 0 1 1 2 1 1 1 1 1
6 9 9 9 10 9 11 11 12 13 14 14 13 11 11 10 10 10 9 8 8 6 6 7 6 5 3 2 1 1 2 2 2 2 3 1 2 2 1 1 0 0 1 1 1 1 1 0 0
5 7 7 7 8 9 9 9 12 13 13 13 12 11 10 10 9 9 9 8 8 7 6 5 6 6 3 2 1 1 1 3 2 3 3 2 2 2 1 1 1 1 0 1 0 1 1 1 1
7 8 7 7 7 8 6 8 13 13 13 12 11 11 10 8 9 9 10 8 8 8 6 4 4 7 5 2 1 1 2 2 2 2 3 2 2 1 1 1 0 1 0 1 1 1 0 0 0
7 7 8 9 7 7 5 10 13 13 13 12 11 11 11 10 9 10 10 9 8 7 6 4 2 4 4 3 2 1 1 1 0 1 2 2 2 2 1 1 0 1 0 1 1 1 0 0 0
6 6 6 7 7 4 5 10 13 12 12 12 12 12 12 11 10 10 9 10 8 7 6 5 3 3 2 3 2 1 1 1 1 1 1 2 1 1 1 1 1 0 0 1 1 0 0 1 1
5 3 2 4 7 4 4 8 12 13 11 12 12 12 12 11 11 10 9 9 9 8 7 5 4 4 2 1 1 1 1 1 1 2 2 2 1 0 1 1 0 1 1 1 1 1 1 1 1
7 4 4 5 6 4 3 5 10 13 12 11 12 13 12 12 11 11 10 9 10 9 8 7 5 4 4 2 1 1 1 1 2 1 2 2 1 1 1 1 1 0 1 1 1 1 1 1 1
9 7 5 3 4 5 5 5 7 12 11 11 11 13 14 14 14 13 12 10 10 10 9 7 6 5 4 4 3 2 1 0 0 2 2 2 1 1 1 1 1 1 1 1 1 1 2 2 2
9 6 6 5 5 5 5 4 8 11 11 12 12 12 13 14 15 14 13 11 10 10 9 7 7 5 4 4 3 3 2 2 2 1 2 2 2 1 1 1 1 1 1 1 2 0 1 1 2
9 6 7 7 6 7 4 3 4 7 9 11 12 13 13 13 14 14 14 12 11 10 10 8 7 6 5 4 4 3 2 2 1 1 2 2 2 1 0 0 0 1 1 1 1 1 1 1 1
8 8 8 7 6 7 7 5 3 4 6 8 9 11 12 13 14 13 13 12 11 10 10 10 8 6 5 5 4 3 2 1 1 1 1 2 2 1 0 1 1 1 1 1 1 1 1 1 1
11 9 7 7 6 7 8 6 5 7 8 9 8 9 11 12 13 14 14 13 11 11 10 10 9 7 7 6 5 4 4 3 2 1 2 1 1 1 1 1 1 1 1 0 1 1 1 1 2
13 13 10 7 6 5 6 4 4 7 8 8 8 8 10 11 11 13 14 13 12 12 11 10 10 8 7 7 5 4 4 3 2 2 1 1 1 2 2 2 2 2 2 2 1 0 1 1 1
13 13 14 11 11 7 5 3 2 4 7 8 8 10 10 10 11 12 14 14 13 12 11 10 10 9 8 7 6 5 4 3 2 2 1 1 2 2 2 2 2 1 1 1 1 1 1 1 1
15 12 9 8 7 9 5 5 5 7 7 6 7 9 11 10 10 10 11 13 13 13 11 10 10 9 8 7 7 6 5 4 3 2 2 2 2 2 2 1 1 1 1 1 1 1 1 1 1
15 15 11 7 7 8 6 4 3 5 5 6 7 6 8 10 10 9 9 10 11 12 12 10 10 10 8 8 6 5 6 5 5 3 3 3 2 2 1 1 1 1 1 2 1 1 1 2 1
15 16 14 9 7 8 7 4 4 4 5 5 5 8 7 8 8 9 10 10 10 11 11 11 10 10 9 7 7 6 5 5 5 4 4 3 3 2 2 1 1 0 1 1 1 2 2 1 1
Wind_Direction
205 219 221 241 247 68 66 66 68 67 66 64 66 71 64 58 70 88 98 94 98 98 94 83 69 68 72 73 71 71 69 69 72 75 77 77 80 86 88 89 91 93 95 97 98 99 100 102 104
228 226 228 242 97 74 69 68 69 65 73 77 71 74 74 73 83 96 99 100 99 95 89 82 77 73 76 77 76 75 74 72 73 76 78 78 82 89 89 90 92 93 95 95 96 100 101 103 105
249 249 255 195 65 72 75 74 80 81 78 83 78 68 68 81 88 98 109 108 99 96 95 89 83 78 78 80 81 79 79 77 77 81 83 82 83 89 90 91 93 93 95 96 97 99 101 102 106
248 242 226 72 73 74 82 87 91 87 82 82 85 79 73 84 97 108 113 109 109 107 101 96 90 84 82 84 84 83 82 81 80 83 86 85 85 85 90 90 92 94 95 98 98 99 102 104 108
243 261 86 78 77 78 80 85 89 88 82 83 88 91 88 93 104 110 111 109 109 107 106 105 99 93 89 90 88 87 85 85 84 84 86 87 88 87 89 90 92 93 95 98 99 100 103 105 107
254 213 85 88 86 84 86 87 90 91 94 99 102 100 100 109 110 111 111 109 109 110 110 113 109 104 97 94 95 93 90 88 90 90 90 90 89 90 90 93 94 96 99 101 102 103 105 105 105
263 35 90 94 96 91 89 91 94 98 96 101 108 107 112 116 113 112 107 104 105 108 118 128 129 122 113 106 103 102 101 98 97 97 99 101 98 98 97 97 99 101 103 105 107 107 109 111 111
283 44 81 93 95 93 95 94 94 92 89 101 111 112 120 121 123 119 114 103 101 106 116 127 135 140 137 125 122 120 117 115 113 114 115 117 117 115 116 111 107 109 112 114 117 118 119 124 137
313 58 74 86 95 100 102 100 97 95 96 82 87 107 119 128 126 124 115 103 97 103 110 115 120 136 139 134 137 143 139 137 139 140 144 145 144 137 134 113 120 121 126 132 134 136 140 154 188
84 71 75 81 94 104 104 107 114 109 100 97 97 108 123 131 130 128 122 120 113 111 113 107 101 109 119 120 140 155 147 146 169 144 157 169 160 130 121 129 137 140 144 152 161 161 170 200 198
82 82 86 91 97 107 112 113 114 115 112 114 119 127 134 134 134 129 121 118 118 125 114 109 100 87 86 101 135 138 126 143 156 128 135 126 128 132 128 149 153 164 171 183 170 183 202 210 214
90 90 92 95 101 104 101 99 96 98 109 118 125 132 136 142 137 132 126 124 126 121 108 104 103 85 57 49 80 124 124 143 131 135 147 118 103 105 122 149 156 174 178 180 177 199 196 193 192
106 103 103 105 103 100 104 99 98 102 111 120 129 136 144 145 138 130 126 125 124 121 113 96 97 94 82 48 357 80 102 107 117 125 112 125 135 116 107 73 82 175 160 178 201 191 152 151 176
111 112 111 115 112 118 112 114 114 117 124 129 135 141 148 144 141 133 132 131 133 132 123 117 118 119 116 118 352 347 97 101 110 109 117 104 98 110 125 169 219 266 146 141 163 154 131 169 219
136 127 133 136 142 130 126 125 120 132 137 140 144 148 149 146 140 139 139 140 139 136 124 126 140 131 131 140 213 203 147 138 119 115 123 132 110 119 154 206 200 236 200 129 153 215 172 198 201
182 176 170 161 162 142 165 133 132 146 147 149 154 154 152 148 150 147 142 145 142 137 132 157 155 135 141 139 289 324 43 71 109 130 133 140 134 154 224 248 217 243 238 193 213 239 186 242 175
223 207 177 160 163 157 168 140 144 159 157 158 164 161 159 162 165 153 152 152 141 135 139 150 126 129 144 151 177 218 82 55 22 110 128 144 181 185 212 231 241 262 297 271 254 114 211 233 202
216 225 176 153 152 167 162 146 152 166 167 165 169 167 167 169 170 160 157 149 143 139 142 152 160 144 159 160 170 199 161 168 158 130 125 140 206 200 232 210 200 214 256 284 299 6 210 254 241
239 241 163 141 145 190 184 159 163 167 177 171 171 172 169 170 168 160 159 154 152 149 152 161 169 155 164 184 184 187 182 195 176 167 150 166 212 217 228 310 195 215 241 267 275 278 233 223 202
258 244 223 172 159 195 201 192 171 169 179 177 173 172 171 167 160 163 163 166 162 158 161 166 169 163 171 179 177 179 196 219 174 143 144 163 170 261 238 215 261 218 231 279 267 261 272 265 213
257 252 248 218 183 209 209 217 187 171 176 179 179 173 172 174 169 168 172 175 171 166 167 169 164 165 177 177 181 189 168 242 183 166 147 153 160 188 323 312 301 282 241 231 248 233 248 256 259
252 246 257 247 233 242 219 206 192 176 179 182 185 181 176 174 169 170 173 176 176 170 166 161 160 166 171 173 187 199 185 190 197 182 142 155 170 195 217 273 298 301 303 272 276 141 269 250 259
256 261 257 258 254 266 246 231 210 175 181 185 186 183 178 173 168 170 171 171 176 173 167 161 158 164 167 179 193 205 218 200 177 150 140 148 153 184 158 354 16 312 331 338 319 334 294 265 268
251 258 258 258 259 262 252 237 188 190 188 181 185 182 174 170 164 166 165 164 172 170 167 163 158 164 170 179 187 194 217 203 140 142 154 179 157 146 108 102 44 11 12 349 340 315 314 309 296
234 237 241 236 232 238 241 238 177 173 175 186 172 170 167 163 163 165 165 166 170 171 170 164 159 167 175 182 189 188 198 194 191 198 193 204 139 122 100 64 47 27 4 353 9 319 336 341 312
228 236 244 254 249 230 237 227 181 157 160 171 159 165 163 160 163 166 166 167 171 172 168 164 160 168 177 181 184 182 183 195 184 188 209 141 89 85 82 80 66 46 27 17 8 4 333 352 311
234 238 250 257 266 254 218 206 225 179 170 164 161 158 155 158 163 167 167 172 172 172 170 165 159 166 174 177 172 178 182 179 161 155 172 111 104 122 82 78 76 68 65 28 9 32 23 357 337
243 247 253 256 267 271 238 217 209 192 183 161 162 161 155 157 160 165 169 172 171 171 165 162 161 165 169 171 177 178 176 167 169 157 130 108 93 80 91 71 65 56 55 47 38 43 38 24 16
228 239 246 257 258 262 260 244 175 173 166 182 178 157 152 157 157 161 165 163 163 164 164 162 160 163 168 174 176 168 167 168 167 163 152 136 128 131 133 109 78 62 62 56 37 47 59 51 43
234 238 238 241 251 260 260 238 201 179 178 195 169 145 153 153 151 156 155 154 158 161 163 163 166 169 172 171 165 168 166 165 166 163 155 148 148 152 148 135 117 59 70 74 57 32 49 58 57